Miscellaneous Local Product
Issued by NWS Hastings, NE

Home | Current Version | Previous Version | Graphics & Text | Print | Product List | Glossary On
Versions: 1 2 3 4 5 6 7 8 9 10 11 12 13 14 15 16 17 18 19 20 21 22 23 24 25 26 27 28 29 30 31 32 33 34 35 36 37 38 39 40 41 42 43 44 45 46 47 48 49 50
000
AXUS43 KGID 021702
MISGRI

GID CWA HOURLY WEATHER ROUNDUP
NATIONAL WEATHER SERVICE HASTINGS NE
1100 AM CST FRI DEC 02 2016

NOTE: "FAIR" INDICATES FEW OR NO CLOUDS BELOW 12,000 FEET WITH NO
SIGNIFICANT WEATHER AND/OR OBSTRUCTIONS TO VISIBILITY.

...SOUTH CENTRAL NEBRASKA...

CITY           SKY/WX    TMP DP  RH WIND       PRES   REMARKS
GRAND ISLAND   SUNNY     35  27  72 NW5       30.27R WCI  31
HASTINGS       NOT AVBL
KEARNEY        SUNNY     34  25  69 NE6       30.26R WCI  29
ORD            NOT AVBL
YORK           SUNNY     34  28  80 NE6       30.27S WCI  29
AURORA         SUNNY     34  28  79 N7        30.27R WCI  28
LEXINGTON      SUNNY     32  26  80 E3        30.26R
HOLDREGE       SUNNY     33  26  76 E7        30.27R WCI  27
HEBRON         SUNNY     35  28  77 SE3       30.30R

...NEBRASKA PANHANDLE...

CITY           SKY/WX    TMP DP  RH WIND       PRES   REMARKS
CHADRON        NOT AVBL
ALLIANCE       NOT AVBL
SCOTTSBLUFF    SUNNY     33  23  66 W8        30.23R WCI  26
SIDNEY         NOT AVBL

...WESTERN AND NORTH CENTRAL NEBRASKA...

CITY           SKY/WX    TMP DP  RH WIND       PRES   REMARKS
VALENTINE      SUNNY     32  23  69 VRB3      30.23R
AINSWORTH      MOSUNNY   31  27  86 N3        30.22S
ONEILL         CLOUDY    31  30  94 NW3       30.26R
BROKEN BOW     NOT AVBL
NORTH PLATTE   NOT AVBL
MCCOOK         NOT AVBL

...EASTERN NEBRASKA...

CITY           SKY/WX    TMP DP  RH WIND       PRES   REMARKS
NORFOLK        PTSUNNY   32  27  81 NW7       30.27R WCI  26
SO SIOUX CITY  CLOUDY    38  32  79 NW8       30.29R WCI  32
COLUMBUS       SUNNY     34  28  80 NW5       30.29R WCI  30
ALBION         SUNNY     32  27  81 NW5       30.27R WCI  27
OMAHA EPPLEY   NOT AVBL
MILLARD        SUNNY     37  29  73 NW7       30.28S WCI  32
LINCOLN        NOT AVBL
NEBRASKA CITY  SUNNY     36  28  73 NE6       30.28R WCI  31
BEATRICE       SUNNY     37  30  76 NE3       30.29R
FALLS CITY     SUNNY     38  30  73 CALM      30.30R

...NORTHERN KANSAS...

CITY           SKY/WX    TMP DP  RH WIND       PRES   REMARKS
GOODLAND       NOT AVBL
HILL CITY      SUNNY     40  19  43 NE6       30.27S
NORTON         SUNNY     36  18  48 CALM      30.26S
PHILLIPSBURG   SUNNY     34  25  69 CALM      30.29S
SMITH CENTER   SUNNY     36  27  69 E5        30.30R WCI  32
BELOIT         SUNNY     36  25  64 CALM      30.29S
RUSSELL        NOT AVBL
CONCORDIA      NOT AVBL



USA.gov is the U.S. government's official web portal to all federal, state and local government web resources and services.